Location: Recife
(8.0585°S, 34.8848°W)
Time: 08:00:38
(UTC-03:00)

Courier 1B - Pass Details

Date: 21 April 2026
Orbit: 962 x 1209 km, 28.3° (Epoch: 13 May)

Event Time Altitude Azimuth Distance (km) Brightness Sun altitude
Rises 15:16:51 0° 274° (W) 3,953 11.9 27.4°
Reaches altitude 10° 15:21:02 10° 295° (WNW) 2,936 11.8 26.4°
Maximum altitude 15:25:00 15° 329° (NNW) 2,498 10.6 25.5°
Drops below altitude 10° 15:28:51 10° 4° (N) 2,827 10.2 24.5°
Sets 15:32:47 0° 26° (NNE) 3,727 10.5 23.6°
